Find Starlink 34095

NORAD ID: 63809 Int'l Des: 2025-092 Owner: SPXS Country: US Constellation: starlink operational
LEOCIRCULAR

实时位置

正在加载3D地球...

关于 Starlink 34095

正在加载描述...

即将过境

Passes for default location (London). Set your location on the main map for personalized predictions.

高度历史

Loading altitude history...

两行轨道根数

1 63809U 25092F 26126.51542084 .00013449 00000-0 49757-3 0 9996
2 63809 43.0026 206.3877 0001964 271.0918 88.9709 15.27566503 57456
Epoch: May 6, 2026 • Age: 10 hours

当前状态

高度 486.5 km
速度 7.63 km/s
星下点 38.48°N, 127.03°E
发射日期 May 4, 2025
运行时间 1 years
类型 internet

技术详情

分类 Payload
质量 575.00 kg
干质量 530.00 kg
总质量 575.00 kg
长度 0.30 m
直径 4.10 m
跨度 29.00 m
形状 Box + pan
制造商 SPXS
平台类型 Starlink V2MO
阶段状态 In Orbit
所有者/国家 SPXS/US

Most Searched